Wind_Speed
19 26 28 16 16 18 17 19 23 24 19 24 26 27 25 27 27 27 24 25 28 28 28 30 30 30 29 30 35 34 35 32 34 31 29 30 29 28 28 30 32 34 38 42
23 28 20 18 19 18 18 19 20 21 15 23 28 35 33 22 24 25 19 19 20 22 26 29 27 28 28 28 31 35 35 33 35 35 35 35 35 33 32 35 38 39 40 42
25 16 12 14 14 15 18 16 18 22 22 24 33 29 1 25 20 14 24 24 21 22 23 23 25 28 28 31 32 32 36 37 32 34 36 37 35 35 38 39 40 40 40 40
19 17 20 19 20 21 21 17 18 20 21 20 25 10 27 6 9 26 19 19 18 17 21 24 26 29 30 32 34 35 35 38 43 38 37 40 41 38 40 42 41 38 40 43
10 11 11 18 16 9 18 12 14 17 19 21 11 13 7 19 29 18 15 13 14 19 21 26 29 31 31 31 33 34 33 32 32 37 42 43 42 43 39 42 42 42 43 43
20 21 19 18 14 12 14 15 19 18 18 8 17 17 16 16 17 18 18 13 16 21 22 22 31 32 30 33 35 29 29 31 31 33 35 37 36 38 40 42 43 42 43 42
16 15 14 16 16 13 17 14 4 2 4 6 9 12 23 26 24 21 13 9 13 17 20 21 14 26 19 25 34 23 21 23 23 25 27 30 32 35 37 38 40 43 42 42
9 7 5 5 14 13 10 16 9 4 3 4 5 8 11 19 22 19 12 11 8 9 17 18 17 11 12 18 19 24 25 26 27 22 25 31 33 38 36 39 42 45 45 44
8 10 7 7 8 11 11 15 16 19 11 4 8 17 22 24 22 22 18 8 7 1 9 5 6 9 11 15 20 23 27 27 26 25 28 36 40 41 42 42 43 47 47 46
27 24 21 19 17 19 23 14 6 7 2 4 7 14 19 21 19 20 18 8 6 8 10 12 10 12 15 19 25 29 31 33 30 28 29 29 28 38 44 45 45 47 47 47
21 30 27 19 20 24 21 20 15 13 10 4 2 10 14 18 18 13 11 5 8 11 13 12 15 19 20 25 31 36 38 33 32 32 33 33 34 33 35 39 41 41 41 43
18 10 14 21 19 22 22 26 26 16 7 12 6 25 28 21 15 15 7 11 12 13 15 16 18 22 22 26 31 37 36 33 31 32 32 33 34 32 32 34 36 37 36 36
21 22 11 5 13 19 25 28 27 30 33 26 9 13 7 12 12 15 14 14 18 18 18 18 21 20 23 27 31 36 33 30 28 29 28 28 28 27 28 28 29 28 29 31
22 27 25 20 21 20 16 19 23 28 24 24 32 34 31 25 22 23 27 22 23 23 21 20 21 21 25 26 29 30 27 23 22 22 23 23 21 19 19 19 18 19 21 23
28 30 29 30 28 29 27 22 19 25 31 29 41 32 30 32 24 26 24 21 22 23 24 22 22 25 25 27 27 24 20 18 17 16 16 18 20 21 22 21 20 21 23 25
27 31 26 34 31 30 29 32 34 31 33 41 38 38 35 28 24 20 20 21 21 22 23 22 25 26 27 25 21 16 14 14 12 11 11 13 16 21 24 27 29 28 29 30
30 30 26 21 25 26 27 38 33 31 30 31 32 34 29 25 22 20 19 19 19 20 22 25 26 27 28 22 12 11 10 6 3 8 13 18 21 23 24 24 25 28 32 35
33 31 28 19 10 5 18 15 15 18 20 24 28 28 27 23 17 16 16 16 20 22 25 27 26 24 21 15 10 9 6 4 10 10 10 12 16 18 22 23 25 26 28 29
33 31 19 9 14 18 16 14 16 16 16 17 16 15 16 16 16 18 18 19 21 22 21 19 20 20 15 11 9 6 7 11 7 6 9 12 15 17 19 21 23 25 27 29
34 35 31 15 5 8 5 4 8 12 22 21 22 23 23 21 21 18 19 19 16 15 13 14 16 14 11 10 8 8 13 4 4 6 10 14 15 17 19 22 23 25 26 28
27 34 32 22 11 8 12 16 14 10 13 11 9 11 14 16 17 17 16 14 15 14 14 13 13 11 9 10 8 13 6 3 2 7 13 15 16 18 20 22 22 24 25 26
26 18 17 20 12 9 16 15 16 13 13 11 14 19 21 21 21 21 20 18 14 13 12 11 11 8 7 11 13 10 4 3 7 11 13 14 15 17 19 20 21 21 22 23
18 26 15 14 10 15 10 9 8 8 11 16 18 22 22 20 18 16 13 9 9 9 8 7 6 6 11 14 14 6 5 6 8 10 10 11 13 15 16 17 17 18 19 19
27 20 26 19 23 22 20 17 15 16 17 19 22 21 19 14 10 9 9 10 9 7 6 7 8 10 15 16 9 7 6 6 8 8 9 10 12 15 16 17 19 20 20 21
18 19 23 26 24 19 16 15 16 20 21 21 20 16 10 6 6 5 7 7 6 6 6 8 10 15 15 10 8 7 6 6 5 6 8 10 12 13 15 18 20 24 26 27
18 25 24 24 16 16 16 18 17 14 14 15 13 9 7 8 5 6 7 7 6 7 7 9 14 15 12 8 7 5 3 2 4 6 8 10 12 16 19 22 24 26 28 29
Wind_Direction
259 254 260 285 281 276 272 279 284 287 294 293 296 301 308 311 313 305 302 303 291 295 293 295 288 281 281 276 264 261 266 273 276 272 273 273 268 270 278 285 286 289 294 296
250 257 277 273 263 265 269 279 288 291 295 300 303 303 307 313 308 312 313 308 301 300 298 302 292 286 283 276 272 265 260 259 266 267 264 261 262 265 271 276 281 285 290 294
256 258 265 270 261 267 258 269 292 296 306 300 309 313 117 306 310 314 314 310 307 296 292 285 275 273 269 260 257 259 264 263 267 266 265 262 259 265 269 273 276 280 286 292
267 270 262 269 267 265 269 282 291 296 302 300 315 285 304 280 287 308 311 315 303 303 303 287 273 267 267 265 260 261 260 258 268 267 273 272 270 268 270 271 272 276 284 286
252 265 274 288 288 262 275 301 296 296 290 291 287 275 268 291 289 294 310 304 305 307 300 287 270 265 265 265 264 262 259 254 253 262 264 266 268 268 267 268 269 275 279 278
259 266 269 274 278 270 278 281 286 283 277 268 260 232 294 298 297 306 315 309 316 312 309 294 280 267 260 266 265 254 255 258 255 253 255 258 259 261 263 263 269 272 275 275
273 276 271 260 259 234 258 267 307 289 172 239 150 210 257 285 290 301 296 306 313 307 316 293 317 341 326 293 255 241 250 258 259 265 268 273 271 271 265 269 273 276 277 277
283 292 257 240 247 250 249 240 203 245 216 256 270 239 252 275 280 280 276 288 322 286 311 301 303 332 337 360 355 355 315 285 279 280 282 274 273 272 277 273 274 278 280 279
252 254 249 255 263 239 234 224 249 250 275 280 249 259 268 279 287 278 276 280 297 292 338 327 320 333 341 337 332 330 329 324 312 303 287 283 285 288 287 287 286 285 285 283
259 261 273 268 257 238 234 259 209 202 218 236 259 259 265 283 283 278 258 277 272 269 305 299 286 308 321 329 331 333 329 323 317 315 311 302 283 275 280 284 283 283 283 283
262 256 260 256 235 241 240 238 232 245 227 202 277 260 286 298 293 253 287 260 282 266 297 293 280 312 323 329 334 334 330 323 321 320 317 313 304 296 293 292 288 289 290 286
277 261 253 253 255 253 251 248 252 236 227 219 255 271 289 285 260 274 252 272 282 266 288 292 291 308 318 324 328 331 328 322 322 320 319 317 314 314 308 303 299 293 290 288
263 254 256 270 260 255 255 259 248 245 247 251 233 258 255 278 259 262 260 279 276 268 276 277 290 301 311 319 326 329 325 325 329 329 331 332 325 320 312 305 300 298 299 296
269 266 257 257 269 275 254 268 256 245 244 253 247 260 267 270 262 276 282 280 273 260 269 270 282 294 305 314 321 322 321 324 330 339 348 349 344 345 340 331 327 330 328 323
277 270 269 273 271 267 268 269 258 245 251 251 273 268 272 278 280 278 275 269 266 262 262 273 282 295 304 311 313 314 318 317 323 340 354 7 23 29 28 25 21 15 8 1
268 269 270 265 262 261 262 263 264 257 260 265 266 267 274 278 281 275 266 261 258 254 260 270 285 293 296 298 300 308 307 310 316 337 358 13 24 30 34 36 34 30 28 24
262 264 264 257 262 262 273 269 266 267 265 262 263 275 278 274 279 282 276 260 256 261 269 276 280 286 289 287 291 287 284 283 15 35 37 36 29 26 28 30 32 33 34 34
265 253 264 266 233 222 257 256 269 264 264 266 268 272 274 274 274 256 256 257 260 268 273 279 281 280 276 273 272 262 237 106 52 33 32 36 38 33 30 31 34 36 34 32
252 250 239 230 213 262 257 258 266 267 272 275 270 268 270 274 270 265 262 264 270 277 282 282 277 275 269 263 262 226 104 66 38 35 42 45 43 39 35 32 31 32 31 33
240 245 237 213 200 222 231 254 261 271 272 271 269 272 275 272 269 274 260 263 271 280 286 285 276 264 258 261 241 132 81 45 35 51 55 55 53 50 45 40 36 34 33 34
211 221 213 221 228 255 248 265 263 239 281 279 269 276 281 280 275 267 259 267 277 282 283 272 259 253 255 254 175 95 83 61 74 73 62 53 48 42 39 35 29 27 27 29
216 207 210 216 219 265 261 256 245 270 254 275 283 288 289 284 276 269 267 271 267 273 264 253 247 244 248 203 119 106 106 119 93 70 53 46 43 39 33 29 23 22 22 23
219 217 210 211 229 249 262 283 276 259 260 272 284 292 290 284 276 265 254 235 257 256 247 236 227 220 202 154 113 129 128 105 73 57 45 37 35 32 28 23 19 17 19 19
220 225 230 245 247 252 262 264 274 274 275 282 292 292 287 281 262 221 214 232 249 229 222 209 195 188 168 119 139 131 122 84 54 40 27 26 26 25 20 16 12 12 12 13
219 227 238 238 245 256 260 267 273 276 279 285 287 284 276 236 195 194 205 205 207 214 207 187 175 174 134 136 145 131 103 70 36 11 11 13 12 11 8 5 3 2 2 3
236 237 234 239 265 258 265 269 269 272 270 273 273 260 228 207 201 191 189 186 196 196 182 170 179 147 136 158 147 131 105 63 358 344 351 355 359 2 1 356 357 357 356 356
Height
3090 3087 3084 3091 3091 3091 3090 3090 3088 3087 3089 3084 3084 3083 3085 3084 3083 3081 3080 3079 3073 3074 3072 3072 3071 3070 3070 3070 3070 3071 3072 3073 3074 3075 3075 3075 3075 3076 3076 3076 3077 3077 3075 3074
3085 3080 3086 3086 3085 3084 3086 3086 3085 3084 3085 3083 3078 3077 3078 3079 3076 3074 3074 3071 3069 3067 3067 3066 3065 3064 3065 3066 3066 3067 3066 3066 3067 3068 3069 3069 3069 3069 3069 3069 3068 3068 3068 3065
3077 3081 3082 3081 3081 3081 3081 3082 3082 3082 3081 3080 3075 3067 3071 3071 3071 3069 3068 3066 3064 3062 3060 3060 3060 3059 3058 3059 3058 3059 3060 3061 3062 3062 3061 3061 3061 3061 3062 3062 3061 3060 3058 3057
3073 3075 3075 3076 3078 3078 3077 3080 3080 3079 3079 3078 3078 3067 3065 3064 3065 3065 3063 3061 3059 3059 3058 3057 3055 3054 3054 3053 3053 3053 3053 3053 3054 3054 3055 3054 3053 3052 3053 3054 3054 3053 3050 3048
3070 3070 3070 3072 3073 3073 3073 3076 3076 3076 3076 3074 3074 3074 3058 3060 3059 3059 3059 3057 3057 3056 3056 3053 3051 3050 3050 3049 3049 3049 3048 3046 3046 3044 3044 3045 3044 3043 3043 3044 3045 3043 3042 3038
3067 3068 3068 3067 3069 3070 3072 3072 3073 3072 3073 3069 3068 3070 3051 3054 3053 3053 3053 3053 3053 3053 3052 3050 3050 3048 3047 3047 3045 3043 3042 3041 3039 3037 3036 3036 3035 3034 3034 3034 3034 3033 3030 3028
3063 3063 3064 3064 3065 3067 3068 3070 3070 3070 3070 3065 3062 3063 3054 3050 3050 3050 3050 3051 3051 3051 3050 3049 3049 3048 3045 3041 3036 3034 3034 3034 3033 3032 3031 3030 3027 3026 3024 3023 3022 3020 3019 3016
3061 3060 3060 3061 3062 3063 3064 3066 3067 3064 3064 3061 3061 3054 3048 3049 3048 3046 3045 3046 3048 3048 3048 3046 3045 3042 3041 3038 3036 3034 3033 3031 3028 3025 3023 3022 3020 3018 3015 3012 3010 3008 3005 3003
3058 3057 3058 3058 3060 3061 3061 3062 3062 3060 3060 3059 3052 3048 3044 3043 3043 3042 3042 3043 3045 3047 3046 3044 3042 3040 3039 3037 3034 3031 3029 3027 3022 3018 3015 3013 3009 3006 3003 3000 2996 2993 2990 2988
3054 3053 3055 3056 3056 3056 3057 3058 3059 3058 3057 3054 3046 3043 3040 3039 3039 3039 3040 3042 3043 3044 3043 3041 3040 3038 3036 3033 3030 3026 3021 3018 3014 3009 3005 3002 2998 2996 2991 2987 2984 2981 2977 2974
3050 3050 3049 3050 3050 3051 3054 3051 3052 3052 3050 3048 3046 3036 3035 3035 3035 3036 3037 3038 3039 3039 3039 3037 3035 3033 3031 3028 3023 3018 3014 3010 3005 3000 2996 2992 2989 2985 2980 2976 2972 2967 2963 2961
3046 3044 3041 3042 3043 3045 3046 3045 3045 3046 3044 3041 3041 3028 3030 3030 3031 3033 3034 3034 3035 3035 3033 3032 3030 3028 3026 3023 3019 3014 3009 3004 3000 2996 2990 2984 2978 2971 2967 2963 2959 2957 2953 2949
3041 3039 3038 3036 3039 3039 3037 3036 3036 3038 3037 3032 3037 3028 3028 3029 3028 3028 3029 3030 3030 3030 3029 3027 3026 3024 3022 3018 3014 3008 3002 2998 2994 2990 2983 2976 2972 2967 2962 2957 2952 2948 2943 2939
3036 3034 3033 3033 3032 3032 3030 3029 3030 3033 3030 3028 3022 3023 3023 3024 3023 3023 3024 3024 3024 3025 3024 3023 3022 3020 3017 3015 3010 3005 3000 2997 2993 2988 2982 2977 2971 2965 2959 2953 2948 2943 2938 2933
3031 3027 3028 3026 3026 3026 3025 3023 3025 3025 3024 3023 3014 3016 3018 3019 3017 3017 3018 3018 3018 3019 3019 3018 3016 3014 3012 3009 3005 3001 2997 2995 2991 2987 2983 2979 2973 2966 2960 2954 2948 2943 2938 2931
3024 3020 3021 3018 3019 3019 3016 3015 3016 3016 3015 3012 3011 3008 3011 3011 3011 3010 3010 3011 3012 3013 3014 3013 3011 3009 3007 3005 3002 2998 2995 2992 2989 2986 2983 2979 2974 2968 2962 2957 2951 2946 2939 2933
3017 3017 3017 3012 3012 3012 3008 3002 3005 3005 3005 3005 3002 3004 3005 3005 3005 3005 3005 3005 3007 3008 3009 3007 3006 3005 3002 2999 2997 2995 2993 2991 2988 2985 2982 2979 2974 2970 2965 2960 2954 2948 2941 2935
3009 3010 3011 3007 3007 3007 2997 2997 2997 2996 2997 2998 2997 2998 2999 3000 3000 2999 2999 3001 3002 3003 3002 3001 2999 2998 2996 2995 2993 2992 2990 2988 2987 2986 2984 2980 2976 2972 2968 2963 2958 2952 2946 2940
3000 3003 3004 3002 2999 2995 2992 2992 2992 2991 2992 2992 2992 2993 2994 2994 2995 2995 2995 2996 2996 2996 2995 2993 2993 2992 2991 2991 2989 2988 2986 2986 2987 2986 2984 2981 2977 2974 2970 2966 2960 2955 2949 2943
2990 2993 2997 2995 2994 2994 2986 2986 2987 2987 2985 2986 2987 2988 2988 2988 2989 2990 2990 2990 2990 2990 2989 2988 2987 2987 2987 2986 2986 2985 2985 2988 2988 2986 2984 2980 2978 2975 2972 2968 2964 2957 2952 2946
2983 2983 2984 2987 2988 2984 2983 2983 2983 2985 2985 2982 2983 2984 2984 2985 2985 2985 2984 2985 2985 2985 2985 2984 2983 2984 2984 2985 2984 2983 2987 2988 2988 2986 2983 2980 2978 2975 2972 2969 2965 2961 2955 2950
2976 2978 2978 2982 2983 2982 2978 2979 2980 2979 2978 2980 2980 2980 2979 2979 2979 2979 2980 2980 2981 2981 2981 2981 2981 2982 2983 2985 2983 2986 2988 2988 2986 2984 2982 2981 2979 2976 2973 2970 2967 2964 2959 2954
2972 2972 2973 2975 2975 2975 2974 2974 2974 2975 2976 2976 2976 2975 2973 2972 2972 2973 2974 2976 2977 2977 2978 2979 2980 2981 2983 2983 2985 2987 2988 2987 2985 2984 2984 2982 2980 2977 2975 2973 2970 2966 2962 2957
2964 2966 2968 2971 2970 2971 2971 2971 2972 2972 2972 2972 2971 2969 2968 2967 2967 2968 2970 2973 2974 2975 2976 2977 2978 2981 2983 2983 2986 2987 2987 2986 2985 2985 2985 2983 2980 2977 2974 2972 2969 2966 2962 2958
2960 2963 2963 2965 2966 2966 2967 2968 2968 2968 2968 2967 2966 2965 2964 2965 2966 2967 2969 2970 2972 2973 2974 2976 2978 2981 2981 2985 2986 2987 2986 2985 2986 2986 2985 2982 2979 2976 2974 2971 2967 2963 2960 2955
2954 2956 2959 2960 2962 2962 2963 2963 2964 2964 2964 2963 2963 2962 2963 2964 2965 2967 2968 2969 2971 2973 2974 2976 2979 2980 2983 2985 2986 2986 2986 2986 2987 2987 2984 2982 2979 2975 2972 2969 2965 2962 2958 2955